EW2244 Weather Reports


Display with metric or nautical units.
time (UTC)temp
F
wind
direction
speed
MPH
gust
MPH
rain 1hr
in
rain 24hr
in
rain mn
in
humidity
%
barometer
mb
20260508124127 61 254 2.0 6.0 0.00 0.08 0.00 79 1016.7
20260508123132 61 261 1.0 6.0 0.00 0.08 0.00 76 1016.6
20260508122125 61 269 1.0 4.0 0.00 0.08 0.00 75 1016.6
20260508121134 61 257 2.0 7.0 0.00 0.08 0.00 72 1016.7
20260508120122 61 259 2.0 6.0 0.00 0.08 0.00 77 1016.7
20260508115151 62 255 2.0 8.0 0.00 0.08 0.00 74 1016.6
20260508114121 63 246 4.0 9.0 0.00 0.08 0.00 72 1016.6
20260508113127 64 256 2.0 7.0 0.00 0.08 0.00 73 1016.7
20260508112136 66 274 1.0 3.0 0.00 0.08 0.00 70 1016.7
20260508111123 66 33 2.0 5.0 0.00 0.08 0.00 71 1016.7
20260508110136 66 250 0.0 4.0 0.00 0.08 0.00 66 1016.7
20260508105122 67 90 0.0 3.0 0.00 0.08 0.00 66 1016.8
20260508104128 67 216 1.0 6.0 0.00 0.08 0.00 65 1016.8
20260508103120 66 171 1.0 4.0 0.00 0.08 0.00 69 1016.8
20260508102150 66 171 1.0 2.0 0.00 0.08 0.00 65 1016.9
20260508101136 65 171 0.0 2.0 0.00 0.08 0.00 67 1017.0
20260508100123 65 171 0.0 4.0 0.00 0.08 0.00 68 1016.9
20260508095131 65 147 0.0 4.0 0.00 0.08 0.00 69 1017.0
20260508094124 65 41 0.0 4.0 0.00 0.08 0.00 69 1017.0
20260508093131 64 123 0.0 5.0 0.00 0.08 0.00 70 1017.0
20260508092119 64 43 0.0 3.0 0.00 0.08 0.00 72 1017.0
20260508091128 63 42 1.0 4.0 0.00 0.08 0.00 74 1017.0
20260508090116 63 42 1.0 4.0 0.00 0.08 0.00 74 1016.9
20260508085124 63 200 1.0 3.0 0.00 0.08 0.00 70 1017.0
20260508084131 62 209 1.0 3.0 0.00 0.08 0.00 71 1016.9
20260508083122 62 178 1.0 5.0 0.00 0.08 0.00 71 1017.0
20260508082131 62 165 0.0 2.0 0.00 0.08 0.00 71 1016.9
20260508081136 62 201 1.0 2.0 0.00 0.08 0.00 71 1016.9
20260508080126 62 200 0.0 1.0 0.00 0.08 0.00 73 1016.8
20260508075137 61 200 0.0 2.0 0.00 0.08 0.00 73 1016.8
20260508074124 61 200 0.0 3.0 0.00 0.08 0.00 74 1016.8
20260508073132 62 215 0.0 3.0 0.00 0.08 0.00 74 1016.7
20260508072118 62 79 0.0 2.0 0.00 0.08 0.00 72 1016.6
20260508071130 62 79 0.0 1.0 0.00 0.08 0.00 73 1016.6
20260508070118 61 79 0.0 1.0 0.00 0.08 0.00 75 1016.5
20260508065145 61 79 0.0 1.0 0.00 0.08 0.00 77 1016.5
20260508064133 61 79 0.0 3.0 0.00 0.08 0.00 76 1016.4
20260508063123 60 79 0.0 1.0 0.00 0.08 0.00 78 1016.4
20260508062129 59 79 0.0 0.0 0.00 0.08 0.00 80 1016.3
20260508061136 57 79 0.0 0.0 0.00 0.08 0.00 84 1016.2
20260508060125 56 79 0.0 1.0 0.00 0.08 0.00 83 1016.1
20260508055157 56 79 0.0 2.0 0.00 0.08 0.00 81 1016.0
20260508054124 56 79 0.0 2.0 0.00 0.08 0.00 81 1015.9
20260508053129 55 79 0.0 1.0 0.00 0.08 0.00 80 1015.9
20260508052134 55 79 1.0 3.0 0.00 0.08 0.00 79 1015.8
20260508051126 55 79 0.0 2.0 0.00 0.08 0.00 80 1015.8
20260508050133 54 78 0.0 2.0 0.00 0.08 0.00 81 1015.7
20260508045119 54 78 0.0 0.0 0.00 0.08 0.00 84 1015.6
20260508044128 54 78 0.0 3.0 0.00 0.08 0.00 84 1015.6
20260508043119 53 78 0.0 2.0 0.00 0.08 0.00 85 1015.5
20260508042128 53 78 0.0 0.0 0.00 0.08 0.00 85 1015.4
20260508041117 53 78 0.0 2.0 0.00 0.08 0.00 85 1015.3
20260508040146 53 78 1.0 3.0 0.00 0.08 0.00 85 1015.3
20260508035117 53 76 0.0 3.0 0.00 0.08 0.00 85 1015.1
20260508034127 54 76 0.0 3.0 0.00 0.08 0.00 82 1015.3
20260508033134 55 36 0.0 3.0 0.00 0.08 0.00 79 1015.1
20260508032125 55 91 1.0 3.0 0.00 0.08 0.00 79 1015.0
20260508031134 55 36 1.0 3.0 0.00 0.08 0.00 79 1015.0
20260508030121 55 43 1.0 3.0 0.00 0.08 0.00 79 1014.8
20260508025130 55 192 1.0 4.0 0.00 0.08 0.00 80 1014.8
20260508024119 54 154 0.0 3.0 0.00 0.08 0.00 80 1014.7
20260508023147 55 82 1.0 4.0 0.00 0.08 0.00 80 1014.6
20260508022132 54 44 1.0 3.0 0.00 0.08 0.00 80 1014.6
20260508021121 55 127 0.0 3.0 0.00 0.08 0.00 80 1014.7
20260508020134 55 123 0.0 2.0 0.00 0.08 0.00 79 1014.8
20260508015143 55 162 0.0 2.0 0.00 0.20 0.00 79 1014.8
20260508014130 55 88 1.0 3.0 0.00 0.20 0.00 78 1014.7
20260508013118 55 49 1.0 4.0 0.00 0.20 0.00 78 1014.7
20260508012130 55 57 0.0 3.0 0.00 0.20 0.00 77 1014.7
20260508011116 55 240 0.0 3.0 0.00 0.20 0.00 77 1014.6
20260508010125 56 273 0.0 3.0 0.00 0.20 0.00 76 1014.7
20260508005154 56 27 0.0 3.0 0.00 0.24 0.00 76 1014.7
20260508004124 56 69 1.0 3.0 0.00 0.24 0.00 77 1014.8
20260508003152 56 90 0.0 3.0 0.00 0.24 0.00 77 1014.8
20260508002117 56 173 1.0 5.0 0.00 0.24 0.00 79 1014.9
20260508001125 56 128 1.0 4.0 0.00 0.24 0.00 79 1014.9
20260508000117 56 127 1.0 5.0 0.00 0.24 0.00 78 1014.9
20260507235125 56 134 1.0 4.0 0.00 0.35 0.00 78 1014.9
20260507234133 56 136 1.0 4.0 0.00 0.35 0.00 79 1014.9
20260507233121 55 153 1.0 2.0 0.00 0.35 0.00 80 1014.9
20260507232135 55 153 0.0 3.0 0.00 0.35 0.00 80 1014.9
20260507231123 54 155 0.0 3.0 0.00 0.35 0.00 82 1014.9
20260507230132 54 155 0.0 3.0 0.00 0.35 0.00 85 1015.0
20260507225120 53 155 1.0 3.0 0.00 2.32 0.00 87 1015.0
20260507224133 54 155 1.0 4.0 0.00 2.32 0.00 86 1015.0
20260507223119 54 155 0.0 3.0 0.00 2.32 0.00 86 1015.0
20260507222148 54 154 1.0 3.0 0.00 2.32 0.00 85 1015.0
20260507221131 55 154 1.0 5.0 0.00 2.32 0.00 84 1015.0
20260507220120 55 151 0.0 1.0 0.00 2.32 0.00 83 1014.9
20260507215127 56 151 0.0 0.0 0.00 3.35 0.59 82 1014.8
20260507214156 57 151 0.0 1.0 0.00 3.35 0.59 79 1014.7
20260507213118 58 151 0.0 2.0 0.00 3.35 0.59 77 1014.6
20260507212130 58 163 0.0 3.0 0.00 3.35 0.59 76 1014.5
20260507211132 57 171 0.0 3.0 0.00 3.35 0.59 78 1014.6
20260507210139 56 171 0.0 3.0 0.00 3.35 0.59 82 1014.5
20260507205126 56 172 1.0 3.0 0.00 3.39 0.59 84 1014.6
20260507204118 56 172 1.0 2.0 0.00 3.39 0.59 84 1014.5
20260507203124 56 172 0.0 1.0 0.00 3.39 0.59 84 1014.4
20260507202129 56 172 0.0 1.0 0.00 3.39 0.59 84 1014.5
20260507201152 56 172 0.0 2.0 0.00 3.39 0.59 85 1014.4
20260507200129 56 172 1.0 3.0 0.00 3.39 0.59 84 1014.2
20260507195120 56 172 1.0 2.0 0.00 3.74 0.59 84 1014.1
20260507194121 57 172 1.0 4.0 0.00 3.74 0.59 84 1013.9
20260507193127 58 171 1.0 3.0 0.00 3.74 0.59 82 1013.7
20260507192123 59 171 0.0 1.0 0.00 3.74 0.59 80 1013.5
20260507191153 59 171 1.0 3.0 0.00 3.74 0.59 79 1013.4
20260507190119 60 171 0.0 1.0 0.00 3.74 0.59 79 1013.3
20260507185126 60 171 0.0 2.0 0.00 3.74 0.59 79 1013.2
20260507184132 61 171 1.0 2.0 0.00 3.74 0.59 77 1013.2
20260507183159 61 171 0.0 2.0 0.00 3.74 0.59 76 1013.1
20260507182128 61 171 0.0 3.0 0.00 3.74 0.59 73 1013.1
20260507181134 62 171 1.0 4.0 0.00 3.74 0.59 76 1013.0
20260507180120 62 171 0.0 2.0 0.00 3.74 0.59 72 1012.9
20260507175145 63 171 1.0 2.0 0.00 3.74 0.59 70 1012.8
20260507174117 64 171 0.0 3.0 0.00 3.74 0.59 67 1012.7
20260507173124 64 171 0.0 1.0 0.00 3.74 0.59 66 1012.6
20260507172132 65 171 0.0 1.0 0.00 3.74 0.59 63 1012.5
20260507171118 66 171 0.0 2.0 0.00 3.74 0.59 56 1012.5
20260507170130 66 171 0.0 2.0 0.00 3.74 0.59 53 1012.4
20260507165135 68 171 1.0 2.0 0.00 3.74 0.59 50 1012.4
20260507164142 69 171 0.0 3.0 0.00 3.74 0.59 48 1012.4
20260507163147 69 168 1.0 3.0 0.00 3.74 0.59 51 1012.4
20260507162118 69 157 1.0 5.0 0.00 3.74 0.59 49 1012.4
20260507161126 69 172 0.0 3.0 0.00 3.74 0.59 49 1012.3
20260507160136 69 171 1.0 3.0 0.00 3.74 0.59 47 1012.3
20260507155121 69 161 1.0 4.0 0.00 3.74 0.59 47 1012.3
20260507154154 69 221 1.0 4.0 0.00 3.74 0.59 46 1012.3
20260507153117 70 179 1.0 5.0 0.00 3.74 0.59 48 1012.3
20260507152127 69 132 1.0 4.0 0.00 3.74 0.59 51 1012.4
20260507151131 69 252 1.0 4.0 0.00 3.74 0.59 51 1012.3
20260507150135 69 268 1.0 3.0 0.00 3.74 0.59 54 1012.4
20260507145143 68 290 3.0 5.0 0.00 3.74 0.59 52 1012.5
20260507144130 67 175 1.0 4.0 0.00 3.74 0.59 55 1012.5
20260507143117 67 38 0.0 4.0 0.00 3.74 0.59 56 1012.6
20260507142129 66 38 1.0 4.0 0.00 3.74 0.59 57 1012.6
20260507141139 66 22 1.0 4.0 0.00 3.74 0.59 64 1012.7
20260507140141 65 225 1.0 3.0 0.08 3.74 0.59 63 1012.8
20260507135127 64 223 0.0 3.0 0.08 3.74 0.59 66 1012.9
20260507134118 63 223 0.0 3.0 0.08 3.74 0.59 69 1013.0
20260507133127 62 223 0.0 4.0 0.08 3.74 0.59 79 1013.1
20260507132135 61 219 1.0 4.0 0.08 3.74 0.59 82 1013.2
20260507131123 62 62 0.0 3.0 0.08 3.74 0.59 73 1013.2
20260507130132 62 74 1.0 3.0 0.00 3.66 0.57 70 1013.3
20260507125118 63 69 1.0 4.0 0.00 3.66 0.57 68 1013.3